Swansboro Weather Center

Moon Phase Calendar



Online Cameras

 


      

Current Conditions in Swansboro
6/20/2021 12:32:25 AM

79°F
Feels Like 79
Clear
Humidity
75%
Pressure
29.94"
Wind
4 mph (W)
Dew Point
71°F
UV Index
0/10 (Low)
Visibility
6 mi

Hourly Forecast

Date & Time Sun, Jun 20
12:00 AM
Sun, Jun 20
1:00 AM
Sun, Jun 20
2:00 AM
Sun, Jun 20
3:00 AM
Sun, Jun 20
4:00 AM
Sun, Jun 20
5:00 AM
Sun, Jun 20
6:00 AM
Sun, Jun 20
7:00 AM
Sun, Jun 20
8:00 AM
Sun, Jun 20
9:00 AM
Sun, Jun 20
10:00 AM
Sun, Jun 20
11:00 AM
Sun, Jun 20
12:00 PM
Sun, Jun 20
1:00 PM
Sun, Jun 20
2:00 PM
Sun, Jun 20
3:00 PM
Sun, Jun 20
4:00 PM
Sun, Jun 20
5:00 PM
Sun, Jun 20
6:00 PM
Sun, Jun 20
7:00 PM
Sun, Jun 20
8:00 PM
Sun, Jun 20
9:00 PM
Sun, Jun 20
10:00 PM
Sun, Jun 20
11:00 PM
Mon, Jun 21
12:00 AM
Mon, Jun 21
1:00 AM
Mon, Jun 21
2:00 AM
Mon, Jun 21
3:00 AM
Mon, Jun 21
4:00 AM
Mon, Jun 21
5:00 AM
Mon, Jun 21
6:00 AM
Mon, Jun 21
7:00 AM
Mon, Jun 21
8:00 AM
Mon, Jun 21
9:00 AM
Mon, Jun 21
10:00 AM
Mon, Jun 21
11:00 AM
Mon, Jun 21
12:00 PM
Mon, Jun 21
1:00 PM
Mon, Jun 21
2:00 PM
Mon, Jun 21
3:00 PM
Mon, Jun 21
4:00 PM
Mon, Jun 21
5:00 PM
Mon, Jun 21
6:00 PM
Mon, Jun 21
7:00 PM
Mon, Jun 21
8:00 PM
Mon, Jun 21
9:00 PM
Mon, Jun 21
10:00 PM
Mon, Jun 21
11:00 PM
Condition
Clouds

Clear

Clouds

Clouds

Clouds

Rain

Rain

Clouds

Clouds

Clouds

Rain

Clouds

Rain

Rain

Rain

Rain

Clouds

Clouds

Clouds

Clouds

Clouds

Clouds

Clouds

Rain

Rain

Rain

Rain

Rain

Rain

Rain

Rain

Rain

Rain

Rain

Rain

Rain

Rain

Rain

Rain

Rain

Rain

Rain

Rain

Rain

Rain

Clouds

Clouds

Rain
Temperature 79°F79°F79°F78°F77°F74°F71°F71°F72°F73°F73°F76°F81°F81°F82°F84°F82°F81°F79°F78°F77°F76°F77°F77°F76°F76°F76°F76°F76°F76°F75°F73°F73°F73°F73°F75°F74°F74°F78°F81°F81°F82°F81°F79°F79°F79°F79°F79°F
Feels Like 79°F79°F79°F79°F78°F75°F72°F72°F73°F74°F75°F77°F85°F85°F86°F87°F86°F85°F79°F79°F78°F78°F78°F78°F78°F77°F77°F77°F77°F78°F76°F75°F75°F75°F75°F76°F76°F76°F79°F85°F86°F87°F87°F79°F80°F79°F79°F79°F
Cloudiness 20%1%21%41%60%80%100%100%100%100%100%100%89%90%92%99%100%100%100%100%100%64%82%88%89%84%80%49%61%74%80%84%87%100%100%100%100%100%100%100%85%71%55%52%56%86%57%38%
Visibility 6 mi6 mi6 mi6 mi6 mi6 mi6 mi6 mi6 mi6 mi6 mi6 mi6 mi6 mi6 mi6 mi6 mi6 mi6 mi6 mi6 mi6 mi6 mi6 mi6 mi6 mi6 mi6 mi6 mi6 mi6 mi5 mi2 mi6 mi6 mi6 mi6 mi6 mi6 mi6 mi6 mi6 mi6 mi6 mi6 mi6 mi6 mi6 mi
Precipitation 2%0%0%1%8%35%56%43%39%8%39%31%63%100%100%62%60%54%41%32%32%0%0%20%28%33%34%49%53%53%63%86%97%100%100%100%100%100%100%93%82%80%91%95%95%4%4%32%
Humidity 72%75%72%71%69%75%85%87%84%82%86%81%69%72%66%61%65%67%72%72%75%80%82%82%84%83%82%80%78%82%88%92%94%95%94%89%91%91%82%76%76%74%78%82%86%85%84%81%
Dew Point 69°F71°F69°F68°F66°F66°F66°F67°F67°F67°F69°F70°F70°F71°F70°F69°F69°F69°F69°F69°F69°F70°F71°F71°F71°F71°F70°F69°F69°F70°F71°F71°F71°F72°F71°F71°F72°F72°F72°F73°F73°F73°F74°F74°F74°F74°F74°F73°F
Pressure 29.94"29.94"29.94"29.97"29.97"30"30.03"30.03"30.03"30.06"30.03"30.03"30"30"29.97"29.94"29.97"29.97"29.94"29.94"29.97"29.97"29.97"29.97"29.94"29.94"29.94"29.91"29.91"29.91"29.88"29.88"29.88"29.88"29.88"29.88"29.88"29.88"29.85"29.85"29.83"29.83"29.83"29.83"29.83"29.83"29.85"29.85"
Wind Speed 11.3 mph11.4 mph10.9 mph10.6 mph11 mph12.9 mph10.9 mph10.4 mph13.7 mph12.5 mph11.5 mph13.1 mph16.5 mph17.8 mph18 mph21.6 mph22.1 mph19.8 mph18 mph18 mph18 mph16.8 mph15.4 mph15.3 mph13.1 mph12.7 mph12.9 mph13.3 mph15.3 mph16.2 mph19 mph21.9 mph23.3 mph16.3 mph13.7 mph13.7 mph13.2 mph12.8 mph13.3 mph14.1 mph14.2 mph14.7 mph14.2 mph14.4 mph14.5 mph16.5 mph17.1 mph16.3 mph
Wind
Direction
260°
W
267°
W
265°
W
263°
W
266°
W
261°
W
244°
WSW
229°
SW
235°
SW
230°
SW
213°
SSW
205°
SSW
206°
SSW
209°
SSW
215°
SW
218°
SW
214°
SW
213°
SSW
213°
SSW
215°
SW
217°
SW
215°
SW
210°
SSW
215°
SW
215°
SW
221°
SW
220°
SW
212°
SSW
202°
SSW
199°
SSW
204°
SSW
198°
SSW
207°
SSW
218°
SW
228°
SW
238°
WSW
236°
SW
237°
WSW
229°
SW
229°
SW
224°
SW
220°
SW
221°
SW
217°
SW
209°
SSW
214°
SW
218°
SW
227°
SW

Daily Forecast

Date High Low Precip. Humidity
Today
Jun 20

Rain
84 °F
71 °F
100%
72%
Monday
Jun 21

Rain
82 °F
73 °F
100%
91%
Tuesday
Jun 22

Rain
83 °F
72 °F
100%
62%
Wednesday
Jun 23

Rain
76 °F
71 °F
92%
82%
Thursday
Jun 24

Rain
79 °F
70 °F
71%
76%
Friday
Jun 25

Rain
84 °F
72 °F
84%
59%
Saturday
Jun 26

Rain
83 °F
75 °F
100%
65%
Sunday
Jun 27

Rain
81 °F
75 °F
100%
86%
Monday
Jun 28

Rain
84 °F
75 °F
100%
72%
Tuesday
Jun 29

Rain
89 °F
74 °F
100%
55%
Wednesday
Jun 30

Rain
90 °F
76 °F
100%
54%
Thursday
Jul 1

Rain
89 °F
75 °F
100%
57%
Friday
Jul 2

Rain
86 °F
75 °F
100%
62%
Saturday
Jul 3

Rain
88 °F
77 °F
94%
61%
Sunday
Jul 4

Rain
93 °F
80 °F
55%
58%
Monday
Jul 5

Clouds
95 °F
80 °F
15%
50%

Temperature 8-14 Day Outlook



Precipitation 8-14 Day Outlook




Quick Links
Swansboro News
Swansboro Photos
Swansboro Videos




About Us
Contact Us
Site Map
Search Site
Advertise With Us
   
Swansboro.USCoast.info
THE SWANSBORO WEBSITE

Copyright 2021, Coastal Town
Privacy    |    Legal